Other Public Products
Issued by NWS Grand Forks, ND

Home | Current Version | Previous Version | Graphics & Text | Print | Product List | Glossary On
Versions: 1 2 3 4 5 6 7 8 9 10 11 12 13 14 15 16 17 18 19 20 21 22 23 24 25 26 27 28 29 30 31 32 33 34 35 36 37 38 39 40 41 42 43 44 45 46 47 48 49 50
000
FPUS83 KFGF 270310
OPUFGF
PRAIRIE TO PINES WEATHER ROUNDUP
NATIONAL WEATHER SERVICE EASTERN NORTH DAKOTA/GRAND FORKS ND
900 PM CST THU FEB 26 2015

 **SATELLITE DATA USED TO AUGMENT SKY COVER AT AUTOMATED STATIONS**
 *****  WEATHER ACROSS EASTERN NORTH DAKOTA  *****

CITY           SKY/WX    TMP DP  RH WIND       PRES   REMARKS
GRAND FORKS    PTCLDY    -6 -12  75 W6        30.51S WCI -19
GRAND FORKS AF NOT AVBL
GRAND CITY NWS   N/A     -2 N/A N/A W6          N/A  WCI -14
BUXTON         NOT AVBL
DEVILS LAKE    CLEAR    N/A N/A N/A MISG        N/A
FARGO          CLEAR      1  -8  66 NW9       30.52F WCI -14
WAHPETON ARPT  CLEAR      0  -8  71 NW9       30.53S WCI -16
$$

 *****  WEATHER ACROSS CENTRAL AND WESTERN NORTH DAKOTA  *****

CITY           SKY/WX    TMP DP  RH WIND       PRES   REMARKS
JAMESTOWN      CLEAR     -5 -11  75 W8        30.48S WCI -20
BISMARCK       CLEAR      2  -6  69 W5        30.52F WCI  -8
MINOT          PTCLDY    -3 -11  68 W9        30.48F WCI -19
MINOT AFB      NOT AVBL
GARRISON         N/A     -8 -12  83 W6        30.49S WCI -21
WILLISTON      PTCLDY    -9 -15  75 CALM      30.47F
DICKINSON      CLEAR     -1  -9  68 SE3       30.40F
HETTINGER      CLEAR     -4 -10  75 CALM      30.43S
$$

 *****  OTHER OBSERVATIONS NORTHEAST NORTH DAKOTA  *****

CITY           SKY/WX    TMP DP  RH WIND       PRES   REMARKS
WALHALLA         N/A      1  -8  66 W8        30.47F WCI -12
LANGDON        NOT AVBL
CAVALIER       FAIR       0  -9  65 W9        30.48F WCI -16
GRAFTON        NOT AVBL
CANDO          FAIR      -4  -9  77 W13       30.47S WCI -23
FORT TOTTEN    NOT AVBL
ROLLA          FAIR       0 -11  60 W7        30.41F WCI -13
RUGBY          FAIR      -9 -15  77 W10       30.48F WCI -28
 ***** THE ABOVE OBSERVATIONS ARE NON NWS ARE NOT QUALITY
        CONTROLLED AND MAY MIS-REPORT RAIN FOR SNOW...
$$

 *****  OTHER OBSERVATIONS SOUTHEAST NORTH DAKOTA *****

CITY           SKY/WX    TMP DP  RH WIND       PRES   REMARKS
COOPERSTOWN    NOT AVBL
VALLEY CITY    FAIR      -4  -9  77 W13       30.48S WCI -23
OAKES            N/A     -4  -9  77 W7        30.52S WCI -18
GWINNER        CLEAR      1  -8  66 W10       30.53S WCI -14
BUFFALO        NOT AVBL
WYNDMERE         N/A     -2  -9  71 W6          N/A  WCI -14
 ***** THE ABOVE OBSERVATIONS ARE NON NWS ARE NOT QUALITY
       CONTROLLED AND MAY MIS-REPORT RAIN FOR SNOW...
$$

  *****  WEATHER ACROSS NORTHERN MINNESOTA  *****

CITY           SKY/WX    TMP DP  RH WIND       PRES   REMARKS
FLAG ISLAND    CLEAR      0  -9  65 W6        30.40S WCI -12
WARROAD        CLEAR     -2  -9  71 W8        30.42S WCI -17
ROSEAU         CLEAR      0  -8  71 W9        30.43F WCI -16
HALLOCK        NOT AVBL
THF RVR FALLS  CLEAR     -2  -9  71 W3        30.45F
HALSTAD        NOT AVBL
FOSSTON        CLEAR    -13 -17  84 CALM      30.45F
BAUDETTE       CLEAR     -3 -11  68 W7        30.38S WCI -16
WASKISH        CLEAR     -6  -9  84 SW9       30.41F WCI -22
CROOKSTON      CLEAR     -4  -9  77 NW6       30.51S WCI -16
$$
  *****  WEATHER ACROSS CENTRAL AND WEST MINNESOTA  *****

CITY           SKY/WX    TMP DP  RH WIND       PRES   REMARKS
BEMIDJI        CLEAR     -6 -12  78 W6        30.41S WCI -19
PARK RAPIDS    CLEAR    -10 -16  74 W7        30.42S WCI -25
WADENA         CLEAR     -6  -9  84 W5        30.45S WCI -17
DETROIT LAKES  CLEAR      0  -6  78 W5        30.46S WCI -10
MOORHEAD       CLEAR      3  -4  72 NW10      30.52S WCI -12
FERGUS FALLS   CLEAR     -2  -9  71 W6        30.54S WCI -14
ELBOW LAKE     FAIR      -4  -8  82 W5        30.49S WCI -15
MORRIS MN      FAIR      -4  -9  77 NW8       30.50S WCI -19
STAPLES        CLEAR     -6 -13  71 W6        30.45R WCI -18
WHEATON        CLEAR     -6 -11  77 W6        30.55F WCI -18
$$
  *****  WEATHER ELSEWHERE ACROSS MINNESOTA  *****

CITY           SKY/WX    TMP DP  RH WIND       PRES   REMARKS
DULUTH         CLEAR      1 -13  51 NW9       30.34R WCI -14
INTRNTL FALLS  CLEAR     -3 -14  59 W6        30.37S WCI -15
ELY            CLEAR     -4 -17  54 W5        30.33S WCI -15
CLOQUET        CLEAR      0 -15  50 W8        30.37S WCI -15
BRAINERD       CLEAR      0 -12  57 NW7       30.44R WCI -13
HIBBING        CLEAR     -1 -14  53 W7        30.37R WCI -14
ALEXANDRIA     CLEAR     -4 -10  75 NW7       30.45F WCI -18
SAINT CLOUD    CLEAR      1  -8  66 NW12      30.46R WCI -16
MINNEAPOLIS    CLEAR      4  -8  57 NW9       30.48R WCI -10
$$

  *****  WEATHER ACROSS SOUTH DAKOTA  *****

CITY           SKY/WX    TMP DP  RH WIND       PRES   REMARKS
SIOUX FALLS    CLEAR     -4 -10  75 NW5       30.52R WCI -15
BROOKINGS      NOT AVBL
WATERTOWN      CLEAR     -5 -10  79 W6        30.47F WCI -18
HURON          PTCLDY   -12 -17  78 W8        30.56S WCI -29
SISSETON         N/A     -3  -9  75 NW9       30.52F WCI -19
ABERDEEN       CLEAR     -8 -14  74 W3        30.55F
MITCHELL       CLEAR      0  -6  76 W7        30.57F WCI -13
PIERRE         CLEAR      0  -7  72 NE6       30.52S WCI -12
MOBRIDGE       CLEAR     -3  -9  75 NW5       30.48F WCI -13
RAPID CITY     CLEAR     -4 -11  72 NW8       30.38F WCI -19
$$

  *****  SOME WEATHER IN NEARBY STATES *****

CITY           SKY/WX    TMP DP  RH WIND       PRES   REMARKS
GLASGOW MT     CLEAR      5  -4  66 E9        30.38F WCI  -9
GREAT FALLS MT CLEAR     10   4  76 E10       30.09F WCI  -4
CHEYENNE WY    LGT SNOW   8   3  80 SE10      30.08F WCI  -6
SCOTTSBLUFF NE CLOUDY     9   1  70 E10       30.30S WCI  -5
OMAHA NE       CLEAR      3  -2  79 N5        30.57R WCI  -6
DES MOINES IA  CLEAR      3  -6  66 N6        30.54R WCI  -8
DAVENPORT IA   CLEAR     -7 -13  75 NW9       30.48R WCI -24
CHICAGO IL     PTCLDY     5  -7  57 NW10      30.40R WCI -10
EAU CLAIRE WI  CLEAR      1 -11  57 W3        30.43R
LA CROSSE WI   CLEAR      2  -8  63 CALM      30.47R
$$

  *****  SOME NATIONAL WEATHER *****

CITY           SKY/WX    TMP DP  RH WIND       PRES   REMARKS
LA GUARDIA NY  CLOUDY    24  13  62 NW9       30.14R WCI  14
RALEIGH NC     MOCLDY    29  26  89 CALM      30.13R FOG
ATLANTA GA     MOCLDY    35  30  82 NW6       30.14R
NEW ORLEANS LA CLOUDY    47  34  60 N18G24    30.22R
OKLAHOMA CITY  PTCLDY    26  -1  31 N12       30.45R WCI  16
ALBUQUERQUE NM CLOUDY    30  19  63 E30G36    29.97R WCI  15
SALT LAKE CITY MOCLDY    36  31  82 NW8       29.91S
LOS ANGELES CA CLEAR     58  53  84 W7        29.86R
BOISE ID       CLOUDY    42  35  76 NW3       29.93F
SEATTLE WA     LGT RAIN  50  46  86 CALM      29.94F
$$

*** WEATHER ACROSS MANITOBA...SASKATCHEWAN AND ONTARIO ***
                ***ONTARIO***

CITY           SKY/WX    TMP DP  RH WIND       PRES   REMARKS
GERALDTON      CLEAR     -4 -13  65 W7        30.16S WCI -18
THUNDER BAY    CLEAR      0 -11  60 SW8       30.33R WCI -15
SIOUX LOOKOUT  CLEAR     -6 -13  71 W3        30.28S
TORONTO        CLOUDY     5  -6  61 N13       30.26R WCI -12
BIG TROUT LK   PTCLDY     1  -9  60 W9        30.08F WCI -14
PICKLE LAKE    NOT AVBL
DRYDEN         CLEAR     -2 -11  65 W10       30.30S WCI -19
KENORA         CLEAR     -2 -13  60 W9        30.35S WCI -18
$$
                *** MANITOBA***

CITY           SKY/WX    TMP DP  RH WIND       PRES   REMARKS
BRANDON        CLEAR     -8 -15  71 W12       30.45F WCI -27
DAUPHIN        CLEAR      1  -8  66 W17G25    30.43F WCI -19
ISLAND LAKE    CLEAR      3 -11  51 W12       30.22F WCI -13
PILOT MOUND      N/A     -4  -9  77 W8          N/A  WCI -19
THE PAS        MOCLDY     5 -11  47 SW10G18   30.33F WCI -10
THOMPSON       PTCLDY     5  -9  51 W8        30.16F WCI  -8
WINNIPEG       CLEAR     -4 -11  71 W10       30.46F WCI -21
LYNN LAKE      CLOUDY    10  -6  48 W14G23    30.09F WCI  -5
CHURCHILL      PTCLDY     3  -6  66 W10       29.90F WCI -12
GILLAM         PTCLDY     7  -9  47 W14G20    30.06F WCI -10
$$
                ***SASKATCHEWAN***

CITY           SKY/WX    TMP DP  RH WIND       PRES   REMARKS
ESTEVAN        CLEAR    -11 -17  77 W5        30.47F WCI -23
KINDERSLEY     NOT AVBL
LLOYDMINSTER   MOCLDY    -2  -9  71 S9        30.22F WCI -18
PRINCE ALBERT  PTCLDY    -6 -13  71 SW8       30.38F WCI -21
REGINA         CLEAR     -9 -13  84 SE7       30.42F WCI -24
YORKTON        CLEAR     -6 -13  71 W9        30.42F WCI -22


USA.gov is the U.S. government's official web portal to all federal, state and local government web resources and services.